Cruise ID,Date UTC,Time UTC,Local Date (EST),Local Time (EST),Lat,Long,pCO2_in_situ T (matm),pCO2 Air,pH 25C,Salinity,Salinity Source,Temperature,Temperature Source,TCO2 (mmol/kgSW) 25C
09FSH01,20090224,16:22:00,20090224,11:22:00,26.62961,-82.52973,474.233835,-9999,7.982854091,36,1,17.8375,1,1981.191162
09FSH01,20090224,16:24:00,20090224,11:24:00,26.63091,-82.5262,474.355178,-9999,7.983152256,36,1,17.886833,1,1983.137817
09FSH01,20090224,16:27:00,20090224,11:27:00,26.62975,-82.51904,473.082062,-9999,7.980001628,36,1,17.9654,1,1962.726196
09FSH01,20090224,16:29:00,20090224,11:29:00,26.62935,-82.51379,470.788134,-9999,7.980839979,36,1,17.992833,1,1958.182983
09FSH01,20090224,16:32:00,20090224,11:32:00,26.629,-82.50588,475.038954,-9999,7.975783778,36,1,17.858967,1,1949.40271
09FSH01,20090224,16:34:00,20090224,11:34:00,26.629,-82.50058,477.707396,-9999,7.977180663,36,1,17.906467,1,1966.23291
09FSH01,20090224,16:36:00,20090224,11:36:00,26.62882,-82.49529,479.653957,-9999,7.974770608,36,1,17.900133,1,1961.65271
09FSH01,20090224,16:39:00,20090224,11:39:00,26.62854,-82.48734,480.151528,-9999,7.971927841,36,1,17.898067,1,1949.581055
09FSH01,20090224,16:41:00,20090224,11:41:00,26.62833,-82.482,481.947462,-9999,7.971773055,36,2,17.928167,1,1955.467773
09FSH01,20090224,16:43:00,20090224,11:43:00,26.62745,-82.4763,483.492911,-9999,7.970169192,36,2,17.963467,1,1953.326416
09FSH01,20090224,16:46:00,20090224,11:46:00,26.62696,-82.46723,484.663835,-9999,7.969916607,36,2,17.972233,1,1956.401123
09FSH01,20090224,16:48:00,20090224,11:48:00,26.62717,-82.4611,486.785486,-9999,7.968569791,36,2,17.9565,1,1957.602051
09FSH01,20090224,16:50:00,20090224,11:50:00,26.62796,-82.45511,487.833538,-9999,7.969121067,36,2,17.987633,1,1964.153076
09FSH01,20090224,16:53:00,20090224,11:53:00,26.6268,-82.4464,491.951932,-9999,7.965727034,36,2,18.021033,1,1962.551636
09FSH01,20090224,16:55:00,20090224,11:55:00,26.62535,-82.4405,495.525546,-9999,7.965133752,36,2,18.005867,1,1972.63623
09FSH01,20090224,16:58:00,20090224,11:58:00,26.62333,-82.43155,498.902002,-9999,7.965534371,36,2,18.0332,1,1986.901001
09FSH01,20090224,17:00:00,20090224,12:00:00,26.62202,-82.42557,502.632122,-9999,7.962387583,36,2,18.045033,1,1984.811646
09FSH01,20090224,17:02:00,20090224,12:02:00,26.62097,-82.41956,502.807584,-9999,7.963005237,36,2,18.077567,1,1988.51062
09FSH01,20090224,17:05:00,20090224,12:05:00,26.61954,-82.41046,505.446436,-9999,7.960585468,36,2,18.079167,1,1986.016235
09FSH01,20090224,17:07:00,20090224,12:07:00,26.61844,-82.40444,510.078554,-9999,7.959535255,36,1,18.0818,1,1997.424316
09FSH01,20090224,17:09:00,20090224,12:09:00,26.61749,-82.39839,514.638263,-9999,7.952294666,36,2,18.127333,1,1977.72583
09FSH01,20090224,17:12:00,20090224,12:12:00,26.61624,-82.3893,520.787958,-9999,7.948971196,36,2,18.123833,1,1982.887451
09FSH01,20090224,17:14:00,20090224,12:14:00,26.61522,-82.38326,525.602128,-9999,7.947080782,36,2,18.183633,1,1990.304565
09FSH01,20090224,17:16:00,20090224,12:16:00,26.6142,-82.37722,528.548713,-9999,7.942813835,36,2,18.2,1,1979.408569
09FSH01,20090224,17:19:00,20090224,12:19:00,26.61277,-82.36818,532.517675,-9999,7.943692117,36,2,18.227433,1,1997.418945
09FSH01,20090224,17:21:00,20090224,12:21:00,26.61191,-82.3621,536.537883,-9999,7.942828123,36,2,18.228267,1,2006.954956
09FSH01,20090224,17:36:00,20090224,12:36:00,26.60643,-82.31637,537.702266,-9999,7.957910729,36,2,18.261933,1,2087.985352
09FSH01,20090224,17:38:00,20090224,12:38:00,26.60592,-82.31024,544.059099,-9999,7.957762897,36,2,18.4294,1,2109.906738
09FSH01,20090224,17:41:00,20090224,12:41:00,26.60441,-82.30115,549.40952,-9999,7.949119607,36,2,18.4398,1,2083.611816
09FSH01,20090224,17:43:00,20090224,12:43:00,26.60155,-82.29585,552.936293,-9999,7.95062627,36,2,18.465333,1,2103.818359
09FSH01,20090224,17:45:00,20090224,12:45:00,26.60059,-82.28972,555.992413,-9999,7.948966001,36,2,18.525367,1,2105.804932
09FSH01,20090224,17:48:00,20090224,12:48:00,26.59938,-82.28062,560.146842,-9999,7.945307622,36,2,18.5603,1,2101.083008
09FSH01,20090224,17:50:00,20090224,12:50:00,26.60037,-82.27707,562.647215,-9999,7.946567817,36,2,18.581133,1,2116.364746
09FSH01,20090224,17:52:00,20090224,12:52:00,26.60025,-82.27308,567.052057,-9999,7.9429582,36,2,18.5487,1,2112.58667
09FSH01,20090224,17:55:00,20090224,12:55:00,26.59933,-82.26782,568.650997,-9999,7.931737797,36,2,18.5694,1,2059.822998
09FSH01,20090224,17:57:00,20090224,12:57:00,26.59853,-82.26492,571.230994,-9999,7.935615189,36,2,18.5733,1,2088.474609
09FSH01,20090224,17:59:00,20090224,12:59:00,26.59761,-82.2619,575.203684,-9999,7.933216328,36,2,18.648467,1,2089.405029
09FSH01,20090224,18:02:00,20090224,13:02:00,26.5972,-82.2573,580.654048,-9999,7.931055,36,2,18.751667,1,2096.426514
09FSH01,20090224,18:04:00,20090224,13:04:00,26.5966,-82.25427,585.249631,-9999,7.922150794,36,2,18.803433,1,2065.631348
09FSH01,20090224,18:07:00,20090224,13:07:00,26.59604,-82.24961,596.664216,-9999,7.914438399,36,2,18.859633,1,2063.130615
09FSH01,20090224,18:09:00,20090224,13:09:00,26.5958,-82.24637,604.404763,-9999,7.910955832,36,2,18.9835,1,2070.025391
09FSH01,20090224,18:11:00,20090224,13:11:00,26.5952,-82.24299,615.21052,-9999,7.897956498,36,2,19.082567,1,2037.840454
09FSH01,20090224,18:14:00,20090224,13:14:00,26.5908,-82.24061,613.585254,-9999,7.899715442,36,2,19.1466,1,2041.685181
09FSH01,20090224,18:16:00,20090224,13:16:00,26.58833,-82.24403,608.551953,-9999,7.908466542,36,2,19.173467,1,2070.415283
09FSH01,20090224,18:18:00,20090224,13:18:00,26.58623,-82.24953,600.189902,-9999,7.914342479,36,2,19.203233,1,2073.939697
09FSH01,20090224,18:21:00,20090224,13:21:00,26.58255,-82.25775,595.233494,-9999,7.925307286,36,2,19.221433,1,2114.741699
09FSH01,20090224,18:23:00,20090224,13:23:00,26.58016,-82.26323,609.145424,-9999,7.923804178,36,2,19.258167,1,2152.511475
09FSH01,20090224,18:26:00,20090224,13:26:00,26.57718,-82.2718,611.24811,-9999,7.910489349,36,2,19.197233,1,2089.359619
09FSH01,20090224,18:28:00,20090224,13:28:00,26.57481,-82.27736,600.276014,-9999,7.903392726,36,2,19.140933,1,2018.802368
09FSH01,20090224,18:30:00,20090224,13:30:00,26.57257,-82.283,595.931818,-9999,7.933409735,36,2,19.095,1,2160.048828
09FSH01,20090224,18:33:00,20090224,13:33:00,26.56913,-82.29137,595.708783,-9999,7.934171072,36,1,19.092433,1,2163.388916
09FSH01,20090224,18:35:00,20090224,13:35:00,26.56694,-82.29705,587.109591,-9999,7.941974582,36,2,19.0708,1,2176.259766
09FSH01,20090224,18:50:00,20090224,13:50:00,26.55025,-82.33736,547.112174,-9999,7.946271563,36,2,19.011467,1,2060.914307
09FSH01,20090224,18:52:00,20090224,13:52:00,26.54546,-82.3404,545.348383,-9999,7.947562664,36,2,18.955933,1,2061.415039
09FSH01,20090224,18:54:00,20090224,13:54:00,26.54061,-82.34345,544.387036,-9999,7.943119806,36,2,18.9027,1,2035.429688
09FSH01,20090224,18:57:00,20090224,13:57:00,26.53341,-82.34795,543.398046,-9999,7.945807774,36,2,18.8754,1,2045.666748
09FSH01,20090224,18:59:00,20090224,13:59:00,26.52857,-82.35092,542.411641,-9999,7.948627445,36,2,18.889833,1,2056.64209
09FSH01,20090224,19:02:00,20090224,14:02:00,26.52137,-82.35539,542.741203,-9999,7.949297637,36,2,18.8847,1,2061.230225
09FSH01,20090224,19:04:00,20090224,14:04:00,26.51653,-82.35837,540.523103,-9999,7.950405834,36,2,18.8735,1,2059.156006
09FSH01,20090224,19:06:00,20090224,14:06:00,26.51166,-82.36129,539.078372,-9999,7.949411096,36,2,18.9199,1,2049.00708
09FSH01,20090224,19:09:00,20090224,14:09:00,26.50432,-82.36553,536.791216,-9999,7.952178957,36,1,18.905467,1,2055.139404
09FSH01,20090224,19:11:00,20090224,14:11:00,26.49929,-82.36808,536.113708,-9999,7.956254971,36,2,18.8891,1,2073.728027
09FSH01,20090224,19:13:00,20090224,14:13:00,26.49434,-82.37074,537.22404,-9999,7.955870465,36,2,18.883467,1,2075.684326
09FSH01,20090224,19:16:00,20090224,14:16:00,26.48686,-82.3745,534.48159,-9999,7.957367236,36,2,18.885333,1,2073.671387
09FSH01,20090224,19:18:00,20090224,14:18:00,26.48219,-82.37753,533.704477,-9999,7.9611115,36,2,18.924767,1,2090.3479
09FSH01,20090224,19:21:00,20090224,14:21:00,26.47703,-82.38481,533.522718,-9999,7.953943179,36,2,18.9068,1,2052.642822
09FSH01,20090224,19:23:00,20090224,14:23:00,26.47356,-82.38962,535.271437,-9999,7.952486224,36,2,18.929667,1,2051.359131
09FSH01,20090224,19:25:00,20090224,14:25:00,26.46996,-82.39423,532.987282,-9999,7.95182723,36,2,18.927267,1,2039.957153
09FSH01,20090224,19:28:00,20090224,14:28:00,26.46459,-82.40126,532.462514,-9999,7.952598912,36,2,18.895733,1,2042.038818
09FSH01,20090224,19:30:00,20090224,14:30:00,26.46081,-82.40583,530.201011,-9999,7.952850705,36,2,18.8978,1,2035.345215
09FSH01,20090224,19:32:00,20090224,14:32:00,26.45718,-82.41047,528.803345,-9999,7.955955288,36,1,18.915267,1,2046.201416
09FSH01,20090224,19:35:00,20090224,14:35:00,26.45184,-82.41752,529.066908,-9999,7.95630904,36,2,18.929533,1,2048.943604
09FSH01,20090224,19:37:00,20090224,14:37:00,26.44815,-82.42218,527.921744,-9999,7.955331917,36,2,18.8765,1,2039.890991
09FSH01,20090224,19:39:00,20090224,14:39:00,26.44453,-82.42685,528.529582,-9999,7.957800041,36,2,18.843033,1,2054.661377
09FSH01,20090224,19:42:00,20090224,14:42:00,26.43899,-82.43375,528.046579,-9999,7.957887428,36,2,18.795667,1,2053.386963
09FSH01,20090224,19:44:00,20090224,14:44:00,26.43532,-82.4384,528.417145,-9999,7.95889048,36,2,18.794467,1,2059.860596
09FSH01,20090224,19:47:00,20090224,14:47:00,26.42986,-82.44542,527.541039,-9999,7.955300434,36,2,18.762133,1,2038.381348
09FSH01,20090224,19:49:00,20090224,14:49:00,26.42602,-82.44994,526.832302,-9999,7.957254233,36,2,18.7432,1,2045.816772
09FSH01,20090224,20:03:00,20090224,15:03:00,26.4064,-82.47327,491.336593,-9999,7.985496472,36,2,18.7549,1,2059.807617
09FSH01,20090224,20:06:00,20090224,15:06:00,26.40604,-82.47378,492.967524,-9999,7.97996759,36,2,18.795733,1,2037.599976
09FSH01,20090224,20:08:00,20090224,15:08:00,26.40476,-82.47227,491.035862,-9999,7.987250761,36,1,18.7881,1,2067.741211
09FSH01,20090224,20:10:00,20090224,15:10:00,26.40449,-82.46706,491.853393,-9999,7.983739751,36,1,18.791967,1,2052.718506
09FSH01,20090224,20:13:00,20090224,15:13:00,26.40496,-82.45811,492.095806,-9999,7.98213136,36,2,18.823267,1,2045.376221
09FSH01,20090224,20:15:00,20090224,15:15:00,26.4053,-82.45209,494.103443,-9999,7.981741204,36,1,18.841633,1,2050.984375
09FSH01,20090224,20:17:00,20090224,15:17:00,26.40578,-82.44606,495.856893,-9999,7.983678416,36,2,18.8462,1,2067.650879
09FSH01,20090224,20:20:00,20090224,15:20:00,26.40625,-82.43706,499.625466,-9999,7.981944623,36,1,18.872267,1,2072.971924
09FSH01,20090224,20:22:00,20090224,15:22:00,26.40655,-82.43103,502.936757,-9999,7.980167612,36,2,18.883467,1,2076.256836
09FSH01,20090224,20:25:00,20090224,15:25:00,26.40684,-82.42202,507.636717,-9999,7.976870292,36,1,18.9083,1,2076.773438
09FSH01,20090224,20:27:00,20090224,15:27:00,26.40719,-82.416,511.154784,-9999,7.973931899,36,2,18.912833,1,2074.624023
09FSH01,20090224,20:29:00,20090224,15:29:00,26.40734,-82.41001,512.974094,-9999,7.972004861,36,2,18.905,1,2071.372559
09FSH01,20090224,20:32:00,20090224,15:32:00,26.40754,-82.40097,515.424397,-9999,7.973420063,36,1,18.908033,1,2087.818115
09FSH01,20090224,20:34:00,20090224,15:34:00,26.40761,-82.39501,517.528971,-9999,7.97099907,36,1,18.978067,1,2082.970947
09FSH01,20090224,20:36:00,20090224,15:36:00,26.40751,-82.38905,519.25169,-9999,7.968943307,36,2,19.000767,1,2078.608887
09FSH01,20090224,20:39:00,20090224,15:39:00,26.4073,-82.38005,523.522097,-9999,7.967737025,36,2,19.025567,1,2087.978516
09FSH01,20090224,20:41:00,20090224,15:41:00,26.40716,-82.37406,527.234166,-9999,7.967269773,36,1,18.9966,1,2099.11084
09FSH01,20090224,20:44:00,20090224,15:44:00,26.40694,-82.36506,530.622022,-9999,7.967216241,36,2,18.9493,1,2111.208984
09FSH01,20090224,20:46:00,20090224,15:46:00,26.40712,-82.35909,532.812799,-9999,7.965403258,36,2,18.996867,1,2109.633545
09FSH01,20090224,20:48:00,20090224,15:48:00,26.40731,-82.35312,537.590757,-9999,7.96210479,36,2,19.001033,1,2109.563721
09FSH01,20090224,20:51:00,20090224,15:51:00,26.40804,-82.34417,538.957935,-9999,7.960473963,36,1,19.055833,1,2105.9021
09FSH01,20090224,20:53:00,20090224,15:53:00,26.40928,-82.33851,540.590273,-9999,7.959991434,36,2,19.053667,1,2109.225098
09FSH01,20090224,20:55:00,20090224,15:55:00,26.41047,-82.33258,543.603288,-9999,7.957414616,36,2,19.085667,1,2106.448242
09FSH01,20090224,20:58:00,20090224,15:58:00,26.41229,-82.32385,547.876277,-9999,7.955097573,36,2,19.117233,1,2109.458984
09FSH01,20090224,21:00:00,20090224,16:00:00,26.41347,-82.31813,551.732772,-9999,7.953684627,36,2,19.166867,1,2115.66626
09FSH01,20090224,21:02:00,20090224,16:02:00,26.41473,-82.31232,554.724641,-9999,7.951757148,36,2,19.2328,1,2116.044189
09FSH01,20090224,21:17:00,20090224,16:17:00,26.42404,-82.26894,554.406301,-9999,7.953612618,36,2,19.1906,1,2124.733643
09FSH01,20090224,21:19:00,20090224,16:19:00,26.42541,-82.26321,557.07493,-9999,7.949566038,36,2,19.323,1,2112.739746
09FSH01,20090224,21:21:00,20090224,16:21:00,26.42677,-82.25743,558.857797,-9999,7.948381541,36,2,19.353233,1,2112.731689
09FSH01,20090224,21:24:00,20090224,16:24:00,26.42885,-82.24881,562.159231,-9999,7.948640814,36,1,19.415067,1,2125.616943
09FSH01,20090224,21:26:00,20090224,16:26:00,26.43032,-82.2431,566.475608,-9999,7.944497571,36,2,19.467367,1,2118.704346
09FSH01,20090224,21:28:00,20090224,16:28:00,26.43018,-82.23739,569.224725,-9999,7.943354974,36,2,19.492933,1,2122.155273
09FSH01,20090224,21:31:00,20090224,16:31:00,26.42954,-82.22865,571.366277,-9999,7.940832583,36,2,19.541133,1,2116.208008
09FSH01,20090224,21:33:00,20090224,16:33:00,26.42897,-82.22278,574.578358,-9999,7.938938439,36,2,19.539867,1,2117.204834
09FSH01,20090224,21:36:00,20090224,16:36:00,26.42814,-82.21396,577.145153,-9999,7.939630242,36,2,19.563367,1,2129.60498
09FSH01,20090224,21:38:00,20090224,16:38:00,26.42758,-82.20811,578.493493,-9999,7.939506051,36,2,19.5918,1,2133.547363
09FSH01,20090224,21:40:00,20090224,16:40:00,26.42713,-82.20224,579.158091,-9999,7.940285486,36,2,19.636833,1,2139.959229
09FSH01,20090224,21:43:00,20090224,16:43:00,26.42572,-82.19359,580.467748,-9999,7.93952347,36,2,19.618367,1,2140.376221
09FSH01,20090224,21:45:00,20090224,16:45:00,26.42362,-82.18841,581.11356,-9999,7.939131762,36,2,19.647567,1,2140.490967
09FSH01,20090224,21:47:00,20090224,16:47:00,26.42173,-82.18302,583.902091,-9999,7.937792017,36,2,19.697033,1,2142.841309
09FSH01,20090224,21:50:00,20090224,16:50:00,26.42095,-82.1743,583.954006,-9999,7.934279842,36,2,19.717267,1,2124.395752
09FSH01,20090224,21:52:00,20090224,16:52:00,26.42033,-82.16846,584.323967,-9999,7.935064994,36,2,19.727833,1,2129.789795
09FSH01,20090224,21:55:00,20090224,16:55:00,26.41898,-82.1598,584.196111,-9999,7.929827149,36,2,19.762233,1,2101.838135
09FSH01,20090224,21:57:00,20090224,16:57:00,26.41819,-82.15403,581.092232,-9999,7.93542193,36,2,19.810667,1,2120.770508
09FSH01,20090224,21:59:00,20090224,16:59:00,26.41749,-82.14821,581.165421,-9999,7.937637681,36,2,19.820133,1,2132.730713
09FSH01,20090224,22:02:00,20090224,17:02:00,26.41635,-82.13959,580.976147,-9999,7.936750205,36,2,19.8416,1,2127.389404
09FSH01,20090224,22:04:00,20090224,17:04:00,26.41556,-82.13381,579.737985,-9999,7.941024368,36,2,19.8722,1,2145.881836
09FSH01,20090224,22:06:00,20090224,17:06:00,26.41482,-82.12808,582.057714,-9999,7.941817854,36,2,20.061967,1,2158.078369
09FSH01,20090224,22:09:00,20090224,17:09:00,26.4138,-82.1195,580.126882,-9999,7.932338079,36,2,20.1604,1,2101.349854
09FSH01,20090224,22:11:00,20090224,17:11:00,26.41345,-82.11389,582.077279,-9999,7.933890603,36,2,20.207367,1,2116.030518
09FSH01,20090224,22:13:00,20090224,17:13:00,26.41084,-82.11774,584.14939,-9999,7.9327217,36,2,20.239567,1,2116.841553
09FSH01,20090224,22:16:00,20090224,17:16:00,26.40478,-82.12366,573.691135,-9999,7.917975978,36,2,20.1634,1,2006.998779
09FSH01,20090224,22:59:00,20090224,17:59:00,26.368,-82.16095,562.871509,-9999,7.935548741,36,2,19.664033,1,2059.896729
09FSH01,20090224,23:01:00,20090224,18:01:00,26.36419,-82.16544,564.996846,-9999,7.935864855,36,2,19.5431,1,2068.699951
09FSH01,20090224,23:03:00,20090224,18:03:00,26.36038,-82.16986,564.867775,-9999,7.936234908,36,2,19.453133,1,2070.166016
09FSH01,20090224,23:06:00,20090224,18:06:00,26.35464,-82.17658,563.585807,-9999,7.93453099,36,2,19.3795,1,2057.101563
09FSH01,20090224,23:08:00,20090224,18:08:00,26.35081,-82.181,563.289002,-9999,7.937341029,36,2,19.3252,1,2070.510498
09FSH01,20090224,23:10:00,20090224,18:10:00,26.34677,-82.18524,561.421055,-9999,7.937658211,36,2,19.2508,1,2065.801025
09FSH01,20090224,23:13:00,20090224,18:13:00,26.34074,-82.19157,559.685066,-9999,7.934250737,36,2,19.223233,1,2042.535889
09FSH01,20090224,23:15:00,20090224,18:15:00,26.33704,-82.19614,557.412283,-9999,7.938168901,36,2,19.207567,1,2054.797607
09FSH01,20090224,23:18:00,20090224,18:18:00,26.33211,-82.2035,557.270539,-9999,7.945132554,36,2,19.1484,1,2090.216553
09FSH01,20090224,23:20:00,20090224,18:20:00,26.3288,-82.20863,554.789492,-9999,7.948995687,36,2,19.134133,1,2101.758545
09FSH01,20090224,23:22:00,20090224,18:22:00,26.32534,-82.21371,552.206329,-9999,7.952637205,36,2,19.0842,1,2111.816895
09FSH01,20090224,23:25:00,20090224,18:25:00,26.32036,-82.22144,549.409092,-9999,7.957099629,36,2,19.035567,1,2125.484863
09FSH01,20090224,23:27:00,20090224,18:27:00,26.31711,-82.22666,548.046435,-9999,7.961467159,36,2,19.005133,1,2143.875977
09FSH01,20090224,23:29:00,20090224,18:29:00,26.31395,-82.2319,544.236095,-9999,7.962474118,36,2,18.9649,1,2135.513672
09FSH01,20090224,23:32:00,20090224,18:32:00,26.30884,-82.23938,541.923707,-9999,7.968770459,36,2,18.944133,1,2160.900146
09FSH01,20090224,23:34:00,20090224,18:34:00,26.30572,-82.24475,541.027594,-9999,7.971260274,36,2,18.922633,1,2171.09375
09FSH01,20090224,23:36:00,20090224,18:36:00,26.30251,-82.24998,539.465959,-9999,7.976061246,36,2,18.917867,1,2191.510742
09FSH01,20090224,23:39:00,20090224,18:39:00,26.29787,-82.25791,540.076888,-9999,7.978189349,36,2,18.894067,1,2150.835976
09FSH01,20090224,23:41:00,20090224,18:41:00,26.29481,-82.26323,538.522034,-9999,7.977747748,36,2,18.873367,1,2156.497194
09FSH01,20090224,23:44:00,20090224,18:44:00,26.29009,-82.27109,538.591381,-9999,7.976683551,36,2,18.824667,1,2162.407806
09FSH01,20090224,23:46:00,20090224,18:46:00,26.28697,-82.27634,538.243897,-9999,7.978769147,36,2,18.8199,1,2163.844803
09FSH01,20090224,23:48:00,20090224,18:48:00,26.28476,-82.28211,537.513091,-9999,7.977030396,36,2,18.832533,1,2165.128932
09FSH01,20090224,23:51:00,20090224,18:51:00,26.28052,-82.28866,537.144081,-9999,7.978985691,36,2,18.845267,1,2163.840119
09FSH01,20090224,23:53:00,20090224,18:53:00,26.27644,-82.29261,536.364215,-9999,7.97873502,36,2,18.789567,1,2167.614765
09FSH01,20090224,23:55:00,20090224,18:55:00,26.2722,-82.29649,536.869304,-9999,7.98282164,36,2,18.7763,1,2166.088325
09FSH01,20090224,23:58:00,20090224,18:58:00,26.2653,-82.30162,533.482804,-9999,7.981365961,36,2,18.802633,1,2163.589563
09FSH01,20090225,0:12:00,20090224,19:12:00,26.23292,-82.32527,512.69639,-9999,7.971407447,36,2,18.7731,1,2167.746373
09FSH01,20090225,0:14:00,20090224,19:14:00,26.22826,-82.32867,510.83078,-9999,7.972220309,36,2,18.7337,1,2164.460903
09FSH01,20090225,0:16:00,20090224,19:16:00,26.22361,-82.33197,509.103535,-9999,7.972286689,36,2,18.761633,1,2162.711898
09FSH01,20090225,0:19:00,20090224,19:19:00,26.21662,-82.33713,505.313699,-9999,7.973103671,36,2,18.768333,1,2158.730319
09FSH01,20090225,0:21:00,20090224,19:21:00,26.21204,-82.34058,501.858574,-9999,7.977559959,36,2,18.776467,1,2156.206456
09FSH01,20090225,0:24:00,20090224,19:24:00,26.20502,-82.3455,499.596681,-9999,7.979071307,36,2,18.774233,1,2155.929746
09FSH01,20090225,0:26:00,20090224,19:26:00,26.2003,-82.34867,497.773521,-9999,7.981648459,36,2,18.7768,1,2153.398437
09FSH01,20090225,0:28:00,20090224,19:28:00,26.19552,-82.3518,494.69038,-9999,7.982941765,36,2,18.782133,1,2150.921603
09FSH01,20090225,0:31:00,20090224,19:31:00,26.18832,-82.3565,492.402067,-9999,7.98760562,36,2,18.818133,1,2150.063327
09FSH01,20090225,0:33:00,20090224,19:33:00,26.1836,-82.35967,489.394982,-9999,7.988680867,36,2,18.7865,1,2145.885749
09FSH01,20090225,0:35:00,20090224,19:35:00,26.17889,-82.36282,485.824842,-9999,7.986512838,36,2,18.765733,1,2143.52711
09FSH01,20090225,0:38:00,20090224,19:38:00,26.17169,-82.36749,484.782445,-9999,7.991088009,36,2,18.763133,1,2139.193723
09FSH01,20090225,0:40:00,20090224,19:40:00,26.17069,-82.36386,482.798995,-9999,7.992504495,36,2,18.789467,1,2139.356284
09FSH01,20090225,0:42:00,20090224,19:42:00,26.17068,-82.35767,483.088904,-9999,7.994240324,36,2,18.756367,1,2141.726498
09FSH01,20090225,0:45:00,20090224,19:45:00,26.17117,-82.34851,482.197617,-9999,7.995359713,36,2,18.791933,1,2144.04902
09FSH01,20090225,0:47:00,20090224,19:47:00,26.17153,-82.34234,482.363233,-9999,7.990156948,36,2,18.752367,1,2142.80329
09FSH01,20090225,0:50:00,20090224,19:50:00,26.17214,-82.33324,483.992911,-9999,7.993640157,36,2,18.752733,1,2143.06289
09FSH01,20090225,0:52:00,20090224,19:52:00,26.17244,-82.32711,486.414033,-9999,7.993819613,36,2,18.800733,1,2141.324985
09FSH01,20090225,0:54:00,20090224,19:54:00,26.1729,-82.32103,488.703572,-9999,7.990779218,36,2,18.792333,1,2142.970989
09FSH01,20090225,0:57:00,20090224,19:57:00,26.17337,-82.31185,489.998032,-9999,7.992090355,36,2,18.799167,1,2140.469684
09FSH01,20090225,0:59:00,20090224,19:59:00,26.17387,-82.30576,491.118335,-9999,7.988977408,36,2,18.817633,1,2142.380711
09FSH01,20090225,1:01:00,20090224,20:01:00,26.17425,-82.29966,494.459187,-9999,7.987412839,36,2,18.808967,1,2144.292817
09FSH01,20090225,1:04:00,20090224,20:04:00,26.17473,-82.29054,495.426684,-9999,7.985904791,36,2,18.811967,1,2142.215399
09FSH01,20090225,1:06:00,20090224,20:06:00,26.17516,-82.28446,498.846292,-9999,7.986383343,36,2,18.8302,1,2144.83811
09FSH01,20090225,1:09:00,20090224,20:09:00,26.17556,-82.27538,503.650396,-9999,7.984379506,36,2,18.8418,1,2146.093094
09FSH01,20090225,1:11:00,20090224,20:11:00,26.17566,-82.26926,509.389719,-9999,7.97865631,36,2,18.809567,1,2151.604544
09FSH01,20090225,1:25:00,20090224,20:25:00,26.17671,-82.2267,514.248616,-9999,7.967106303,36,2,18.824033,1,2166.252608
09FSH01,20090225,1:27:00,20090224,20:27:00,26.17676,-82.22057,518.742993,-9999,7.965571621,36,2,18.838167,1,2167.50667
09FSH01,20090225,1:29:00,20090224,20:29:00,26.17686,-82.2145,518.944891,-9999,7.96538821,36,2,18.835067,1,2168.164805
09FSH01,20090225,1:32:00,20090224,20:32:00,26.177,-82.20532,519.897067,-9999,7.964514591,36,2,18.865367,1,2167.478473
09FSH01,20090225,1:34:00,20090224,20:34:00,26.17711,-82.19922,520.533463,-9999,7.965527924,36,2,18.895933,1,2168.124835
09FSH01,20090225,1:37:00,20090224,20:37:00,26.17729,-82.19007,519.807932,-9999,7.966577669,36,2,18.914633,1,2169.046855
09FSH01,20090225,1:39:00,20090224,20:39:00,26.1768,-82.184,518.542939,-9999,7.963841412,36,2,18.955,1,2166.060164
09FSH01,20090225,1:41:00,20090224,20:41:00,26.17491,-82.17827,517.974129,-9999,7.96522695,36,2,18.967467,1,2170.304121
09FSH01,20090225,1:44:00,20090224,20:44:00,26.17298,-82.1695,519.337001,-9999,7.967969408,36,2,18.987533,1,2166.902944
09FSH01,20090225,1:46:00,20090224,20:46:00,26.17372,-82.1634,519.395681,-9999,7.967485266,36,2,18.994333,1,2165.281346
09FSH01,20090225,1:48:00,20090224,20:48:00,26.17364,-82.15732,518.914484,-9999,7.961839156,36,2,18.989133,1,2168.141293
09FSH01,20090225,1:51:00,20090224,20:51:00,26.17161,-82.14837,518.657422,-9999,7.96411741,36,2,18.988767,1,2168.174209
09FSH01,20090225,1:53:00,20090224,20:53:00,26.17025,-82.14236,519.257688,-9999,7.963175183,36,2,18.987333,1,2165.384531
09FSH01,20090225,1:56:00,20090224,20:56:00,26.168,-82.13347,519.005356,-9999,7.965681203,36,2,18.976167,1,2166.301898
09FSH01,20090225,1:58:00,20090224,20:58:00,26.16654,-82.12759,518.59098,-9999,7.964411917,36,2,18.989667,1,2166.043738